CZ-3C DEB, 39600

Orbit data source: Space-Track

CZ-3C DEB, 39600 is space debris in HEO originally from a launch on Sun, 31 Oct 2010 UTC launched from the Xichang Space Center, China (XSC). Debris objects in space refer to the collection of defunct objects orbiting the Earth. Examples of debris include non-operational satellites, rocket bodies, and fragments generated from explosions, collisions, or faulty payload assembly.

Loading next visibility...
Identifier
39600, 2010-057X
Orbit
HEO
Country
Flag of CNCN / PRC
Related business
Manufacturer
CALT
Mission
Spacecraft
Bus & Motor
Unknown
Mass
Unknown
Launch date (UTC)
2010-10-31 (16 years ago)
Launch vehicle
Unknown
Launch site
Xichang Space Center, China (XSC)
Object type
Payload
Rocket body
Debris
Shape & HBR
Unknown shape, 0.3 m
Radar Cross Section
Medium (>0.1 m² and <1 m²)

Expand to show TLE details & history
Last TLE update: 1 day ago

TLE from 1 day ago
0 CZ-3C DEB
1 39600U 10057X   26171.00823070 -.00000127  00000-0  33486-4 0  9997
2 39600  20.2761 331.1493 7221328  42.2355 354.9504  2.25363556103302
Epoch: 2026-06-20T00:11Z
TLE epoch observation values (Epoch: 2026-06-20T00:11:51.132Z)
Latitude
0.00078°
Longitude
59.96039°
Altitude
1,305.1 km
Speed
9.356 km/s
True Right ascension
22h 04m 36s
True Declination
0° 00' 03"
Sunlit
Object was in daylight at epoch
Visualization orbit readout
Latitude
Unknown
Longitude
Unknown
Altitude
Unknown
Speed
Unknown
Apparent Right ascension
Unknown
Apparent Declination
Unknown
Sunlit
N/A
Visualization observer readout
Local Sidereal Time
13:09:48
Azimuth
Unknown
Elevation
Unknown
Doppler factor
Unknown
Orbital elements
Apogee altitude
35,949.57 km
Perigee altitude
451.465 km
Semi-major axis
24,578.654 km
Eccentricity
0.72213
Inclination
20.2761°
RAAN
331.1493°
Arg. of periapsis
42.2355°
True anomaly
318.1308°
Mean anomaly
354.9504°
Eccentric anomaly
342.52779°
Mean motion
0.56326 °/min
Orbital period
639.14 mins
BSTAR
0.000033486
Loading maneuver chart data...
Computing Atmospheric mass density...
Loading historical data...
Loading historical data...
Loading historical data...
Loading historical data...
Loading historical data...
Loading historical data...
Loading historical data...

Documentation

Showing up to 5 results
|